Regional Weather Roundup
Issued by NWS

Home | Current Version | Previous Version | Graphics & Text | Print | Product List | Glossary On
Versions: 1 2 3 4 5 6 7 8 9 10 11 12 13 14 15 16 17 18 19 20 21 22 23 24 25 26 27 28
000
ASUS45 KPSR 260710
RWRAZ

ARIZONA HOURLY REGIONAL WEATHER ROUNDUP
NATIONAL WEATHER SERVICE PHOENIX AZ
1200 AM MST TUE JUL 26 2016

NOTE: FAIR INDICATES FEW OR NO CLOUDS BELOW 12,000 FEET WITH NO
SIGNIFICANT WEATHER AND/OR OBSTRUCTIONS TO VISIBILITY.

AZZ001>003-036-260800-
NORTHWEST ARIZONA

CITY           SKY/WX    TMP DP  RH WIND       PRES   REMARKS
BULLHEAD CITY  CLEAR    100  54  20 S12       29.78S
KINGMAN        CLEAR     85  50  29 SE8       30.03R
$$

AZZ004>008-015-016-018-260800-
NORTH CENTRAL ARIZONA

CITY           SKY/WX    TMP DP  RH WIND       PRES   REMARKS
GRAND CANYON   CLOUDY    69  46  43 NE7       30.34S
WILLIAMS       CLOUDY    68  48  49 SE5       30.40R
PRESCOTT       CLOUDY    67  60  78 CALM      30.18S
FLAGSTAFF      CLOUDY    59  53  80 CALM      30.35F
PAYSON         MOCLDY    73  54  49 E6        30.20F
PAGE           CLOUDY    87  44  22 S13G18    30.07F
$$

AZZ009>014-017-260800-
NORTHEAST ARIZONA

CITY           SKY/WX    TMP DP  RH WIND       PRES   REMARKS
WINSLOW        CLOUDY    73  51  46 W5        30.18F
SAINT JOHNS    CLOUDY    73  51  46 CALM      30.23F
WINDOW ROCK    CLOUDY    68  55  63 CALM      30.34S
SHOW LOW       MOCLDY    68  50  52 CALM      30.30S
$$

AZZ023-260800-
GREATER PHOENIX AREA

CITY           SKY/WX    TMP DP  RH WIND       PRES   REMARKS
PHOENIX        MOCLDY    96  56  26 SE6       29.80F
BUCKEYE        CLOUDY    91  55  29 CALM      29.83F
LUKE AFB       MOCLDY    91  58  31 N9        29.81
DEER VALLEY    MOCLDY    91  52  26 NW7       29.85R
SCOTTSDALE     MOCLDY    93  53  25 CALM      29.85S
MESA-GATEWAY   PTCLDY    91  55  29 NW5       29.85S
$$

AZZ027-028-260800-
SOUTHWEST MARICOPA COUNTY AND PINAL COUNTY

CITY           SKY/WX    TMP DP  RH WIND       PRES   REMARKS
CASA GRANDE    MOCLDY    93  55  27 N8        29.86F
GILA BEND      FAIR      94  55  26 SW6       29.80S
$$

AZZ503-504-507>509-260800-
SOUTHEAST ARIZONA

CITY           SKY/WX    TMP DP  RH WIND       PRES   REMARKS
TUCSON         CLEAR     90  58  33 W9        29.96S
DAVIS-MONTHAN  PTCLDY    90  57  32 W7        29.94S
NOGALES        CLEAR     77  58  51 E6        30.06R
SIERRA VISTA   CLEAR     80  55  41 W8        30.13S
DOUGLAS        PTCLDY    76  64  66 N7        30.06S
SAFFORD        MOCLDY    86  56  35 E6        29.98R
$$

AZZ020-021-025-026-031-260800-
SOUTHWEST ARIZONA

CITY           SKY/WX    TMP DP  RH WIND       PRES   REMARKS
YUMA           TSTM      88  69  53 SW15G36   29.79F
$$

CAZ031-033-041-043-047-048-061-260800-
SOUTHERN CALIFORNIA

CITY           SKY/WX    TMP DP  RH WIND       PRES   REMARKS
DOWNTOWN L.A.  PTCLDY    69  65  86 W3        29.92R
L.A. AIRPORT   MOCLDY    68  65  90 W8        29.92R
SAN DIEGO      PTCLDY    68  66  93 NW3       29.93S
BURBANK        PTCLDY    75  62  64 SE8       29.92R
ONTARIO        PTCLDY    76  59  55 W5        29.94R
RIVERSIDE      CLEAR     76  61  59 W5        29.93S
PALM SPRINGS   PTCLDY    94  55  26 NW15      29.81R
EL CENTRO NAS  CLEAR     94  56  27 W5        29.77R
IMPERIAL       CLEAR     95  64  35 N5        29.75R
BLYTHE         PTCLDY    98  64  32 S17       29.77F HX 100
NEEDLES        CLEAR    101  54  20 SW13G22   29.79R
$$

NVZ020-UTZ003-260800-
SOUTHERN NEVADA-UTAH

CITY           SKY/WX    TMP DP  RH WIND       PRES   REMARKS
LAS VEGAS      PTCLDY    97  37  12 S8        29.82R
SALT LAKE CITY PTCLDY    84  39  20 S9        30.02S
$$

NMZ009-TXZ055-260800-
NEW MEXICO-WEST TEXAS

CITY           SKY/WX    TMP DP  RH WIND       PRES   REMARKS
ALBUQUERQUE    CLOUDY    74  57  55 E20G35    30.27R
EL PASO        PTCLDY    88  48  25 SE8       30.04S
$$


........................KEY........................
SKY/WX - SKY CONDITION/WEATHER
TMP    - TEMPERATURE IN FAHRENHEIT
DP     - DEW POINT IN FAHRENHEIT
RH     - RELATIVE HUMIDITY IN PERCENT
WIND   - DIRECTION AND SPEED IN MILES PER HOUR (MPH)
VRB    - VARIABLE WIND DIRECTION
PRES   - MEAN SEA LEVEL PRESSURE IN INCHES OF MERCURY
         F - FALLING PRESSURE   R - RISING PRESSURE
         S - STEADY PRESSURE
VSB    - VISIBILITY IN MILES
HX     - HEAT INDEX IN FAHRENHEIT
WCI    - WIND CHILL INDEX IN FAHRENHEIT
TC     - TEMPERATURE IN CELSIUS WHICH IS ALSO KNOWN AS
         TEMPERATURE IN CENTIGRADE
AFB    - AIR FORCE BASE
         LUKE AFB IS LUKE AIR FORCE BASE
         DAVIS-MONTHAN IS DAVIS-MONTHAN AIR FORCE BASE
NAS    - NAVAL AIR STATION
         EL CENTRO NAS IS EL CENTRO NAVAL AIR STATION
N/A    - NOT AVAILABLE





USA.gov is the U.S. government's official web portal to all federal, state and local government web resources and services.